Flag for Israel Weather past 2 weeks in Tel Aviv, Israel

75 °F

Passing clouds.

Feels Like: 77 °F
Forecast: 75 / 81 °F
Wind: 8 mph from Southeast

Location: Ben Gurion International Airport

Current Time: Oct 6, 2015 at 10:44:26 PM

Latest Report: Oct 6, 2015 at 10:20 PM

Visibility: N/A

Pressure: 29.80 "Hg

Humidity: 65%

Dew point: 63 °F

Location of Tel AvivLocation

Historic Weather in Tel Aviv — Graph


Tel Aviv temperature yesterday

Maximum temperature yesterday: 84 °F (at 10:50 AM)
Minimum temperature yesterday: 77 °F (at 2:20 AM)
Average temperature yesterday: 80 °F

Past Weeks' High & Low Weather Summary

High99 °F (Sep 23, 11:50 AM)83% (Sep 24, 6:20 AM)30.12 "Hg (Sep 24, 6:20 AM)
Low70 °F (Sep 25, 6:50 AM)18% (Sep 23, 11:50 AM)29.77 "Hg (Oct 6, 1:50 PM)
Average81 °F62%29.94 "Hg
* Reported Sep 21 9:20 PM — Oct 6 9:20 PM, Tel Aviv, Weather by CustomWeather, © 2015

Note: Actual official high and low records may vary slightly from our data, if they occured in-between our weather recording intervals... More about our weather records


Tel Aviv weather history for previous 24 hours

Time TempWeatherWind HumidityBarometerVisibility
9:20 PM
Tue, Oct 6
77 °FPassing clouds.6 mph61%29.80 "HgN/A
8:50 PM77 °FPassing clouds.3 mph61%29.80 "HgN/A
8:20 PM77 °FPassing clouds.3 mph57%29.80 "HgN/A
7:50 PM77 °FClear.5 mph57%29.80 "Hg10 mi
7:20 PM79 °FPassing clouds.7 mph54%29.80 "HgN/A
6:50 PM79 °FPassing clouds.9 mph58%29.77 "HgN/A
6:20 PM79 °FPassing clouds.12 mph58%29.77 "HgN/A
5:50 PM81 °FScattered clouds.14 mph54%29.77 "HgN/A
5:20 PM81 °FScattered clouds.15 mph58%29.77 "HgN/A
4:50 PM82 °FScattered clouds.16 mph55%29.77 "HgN/A
4:20 PM82 °FScattered clouds.14 mph51%29.77 "HgN/A
3:50 PM84 °FScattered clouds.14 mph51%29.77 "HgN/A
3:20 PM84 °FScattered clouds.13 mph48%29.77 "HgN/A
2:50 PM84 °FScattered clouds.15 mph48%29.77 "HgN/A
2:20 PM84 °FPassing clouds.13 mph48%29.77 "HgN/A
1:50 PM84 °FPassing clouds.12 mph45%29.77 "HgN/A
1:20 PM84 °FPassing clouds.13 mph48%29.80 "HgN/A
12:50 PM84 °FPassing clouds.9 mph45%29.80 "HgN/A
12:20 PM82 °FScattered clouds.12 mph51%29.80 "HgN/A
11:50 AM82 °FScattered clouds.13 mph55%29.80 "HgN/A
11:20 AM81 °FScattered clouds.13 mph62%29.83 "HgN/A
10:50 AM81 °FScattered clouds.8 mph62%29.83 "HgN/A
10:20 AM81 °FScattered clouds.8 mph58%29.83 "HgN/A
9:50 AM81 °FPassing clouds.9 mph58%29.83 "HgN/A
9:20 AM79 °FPassing clouds.8 mph61%29.83 "HgN/A
8:50 AM79 °FPassing clouds.5 mph61%29.83 "HgN/A
8:20 AM75 °FPassing clouds.6 mph69%29.83 "HgN/A
7:20 AM73 °FPassing clouds.6 mph69%29.83 "HgN/A
6:50 AM73 °FPassing clouds.5 mph69%29.83 "HgN/A
6:20 AM73 °FPassing clouds.6 mph74%29.83 "HgN/A
5:50 AM73 °FPassing clouds.6 mph69%29.83 "HgN/A
5:20 AM75 °FPassing clouds.8 mph65%29.83 "HgN/A
4:50 AM73 °FClear.5 mph74%29.83 "Hg10 mi
4:20 AM73 °FClear.6 mph74%29.83 "Hg10 mi
3:50 AM73 °FPassing clouds.5 mph74%29.83 "HgN/A
3:20 AM73 °FPassing clouds.3 mph69%29.83 "HgN/A
2:50 AM75 °FPassing clouds.5 mph69%29.86 "HgN/A
2:20 AM75 °FPassing clouds.1 mph65%29.86 "HgN/A
1:50 AM75 °FPassing clouds.2 mph65%29.86 "HgN/A
1:20 AM77 °FPassing clouds.2 mph61%29.86 "HgN/A
12:50 AM75 °FPassing clouds.6 mph65%29.86 "HgN/A
12:20 AM77 °FPassing clouds.6 mph61%29.86 "HgN/A
11:50 PM
Mon, Oct 5
77 °FPassing clouds.6 mph65%29.86 "HgN/A
11:20 PM77 °FPassing clouds.6 mph65%29.86 "HgN/A
10:50 PM79 °FPassing clouds.5 mph61%29.89 "HgN/A
10:20 PM79 °FPassing clouds.3 mph61%29.89 "HgN/A
Weather by CustomWeather, © 2015

See weather overviewHow to use our weather pages